N8ESC Weather Reports


time (UTC)temp
F
wind
direction
speed
knots
gust
knots
rain 1hr
in
rain 24hr
in
rain mn
in
humidity
%
barometer
mb
20260906191158 75 176 3.5 5.2 0.00 0.00 0.00 66 1019.5
20260906190658 76 121 3.5 6.1 0.00 0.00 0.00 66 1019.6
20260906190153 76 74 2.6 6.1 0.00 0.00 0.00 70 1019.7
20260906185651 75 12 1.7 6.1 0.00 0.00 0.00 70 1019.6
20260906185151 75 70 0.9 5.2 0.00 0.00 0.00 68 1019.6
20260906184645 75 56 0.9 7.8 0.00 0.00 0.00 69 1019.8
20260906184142 75 158 2.6 6.1 0.00 0.00 0.00 69 1019.7
20260906183637 75 180 3.5 7.8 0.00 0.00 0.00 66 1019.6
20260906183133 75 100 2.6 7.0 0.00 0.00 0.00 68 1019.6
20260906182632 76 94 2.6 3.5 0.00 0.00 0.00 65 1019.7
20260906182129 76 87 0.9 3.5 0.00 0.00 0.00 64 1019.5
20260906181624 76 163 3.5 7.0 0.00 0.00 0.00 66 1019.5
20260906181120 76 171 1.7 5.2 0.00 0.00 0.00 65 1019.6
20260906180615 76 119 1.7 2.6 0.00 0.00 0.00 64 1019.6
20260906180114 77 45 0.9 2.6 0.00 0.00 0.00 65 1019.7
20260906175613 75 54 1.7 3.5 0.00 0.00 0.00 66 1019.6
20260906175108 76 181 3.5 6.1 0.00 0.00 0.00 63 1019.6
20260906174600 76 86 0.9 3.5 0.00 0.00 0.00 66 1019.5
20260906174055 75 77 0.9 1.7 0.00 0.00 0.00 68 1019.5
20260906173550 75 48 0.0 3.5 0.00 0.00 0.00 64 1019.6
20260906173041 76 159 3.5 5.2 0.00 0.00 0.00 61 1019.7
20260906172540 75 96 2.6 3.5 0.00 0.00 0.00 67 1019.6
20260906172036 76 173 4.3 5.2 0.00 0.00 0.00 68 1019.6
20260906171530 75 58 0.0 1.7 0.00 0.00 0.00 63 1019.7
20260906171026 75 103 0.9 2.6 0.00 0.00 0.00 66 1019.7
20260906170522 75 109 3.5 5.2 0.00 0.00 0.00 68 1019.7
20260906170021 74 51 0.0 3.5 0.00 0.00 0.00 73 1019.7
20260906165518 75 183 2.6 3.5 0.00 0.00 0.00 71 1019.8
20260906165013 74 100 1.7 3.5 0.00 0.00 0.00 71 1019.8
20260906164512 75 198 0.9 2.6 0.00 0.00 0.00 72 1019.9
20260906164008 75 53 0.0 0.9 0.00 0.00 0.00 70 1020.0
20260906163503 75 72 0.9 1.7 0.00 0.00 0.00 71 1019.9
20260906163002 74 172 2.6 5.2 0.00 0.00 0.00 73 1020.0
20260906162500 74 54 0.0 3.5 0.00 0.00 0.00 72 1019.9
20260906161955 74 174 1.7 3.5 0.00 0.00 0.00 72 1019.8
20260906161455 75 50 0.9 3.5 0.00 0.00 0.00 74 1020.1
20260906160955 77 74 0.0 1.7 0.00 0.00 0.00 71 1020.0
20260906160448 75 72 0.9 0.9 0.00 0.00 0.00 71 1020.1
20260906155946 75 63 0.0 2.6 0.00 0.00 0.00 72 1020.2
20260906155445 75 167 2.6 5.2 0.00 0.00 0.00 74 1020.0
20260906154941 74 74 1.7 2.6 0.00 0.00 0.00 72 1019.9
20260906154437 73 122 2.6 5.2 0.00 0.00 0.00 75 1020.1
20260906153935 73 68 0.9 5.2 0.00 0.00 0.00 76 1020.1
20260906153433 73 155 2.6 3.5 0.00 0.00 0.00 74 1020.1
20260906152929 72 349 0.0 0.9 0.00 0.00 0.00 75 1020.1
20260906152424 71 0 1.7 2.6 0.00 0.00 0.00 77 1020.1
20260906151923 71 353 0.9 1.7 0.00 0.00 0.00 75 1020.1
20260906151419 72 352 0.9 0.9 0.00 0.00 0.00 74 1020.2
20260906150914 71 350 0.0 0.0 0.00 0.00 0.00 73 1020.4
20260906150415 71 354 0.9 1.7 0.00 0.00 0.00 74 1020.0
20260906145914 69 355 1.7 2.6 0.00 0.00 0.00 77 1020.2
20260906145413 69 352 1.7 1.7 0.00 0.00 0.00 77 1020.4
20260906144908 69 353 0.9 1.7 0.00 0.00 0.00 76 1020.2
20260906144403 68 353 0.0 1.7 0.00 0.00 0.00 77 1020.1
20260906143858 69 351 1.7 2.6 0.00 0.00 0.00 76 1020.0
20260906143354 68 352 0.0 1.7 0.00 0.00 0.00 77 1020.0
20260906142850 68 356 1.7 2.6 0.00 0.00 0.00 78 1020.2
20260906142344 67 353 0.9 1.7 0.00 0.00 0.00 80 1020.2
20260906141844 66 353 1.7 2.6 0.00 0.00 0.00 80 1020.1
20260906141339 66 357 0.0 0.9 0.00 0.00 0.00 80 1020.2
20260906140838 66 353 0.9 2.6 0.00 0.00 0.00 80 1020.2
20260906140333 66 352 0.9 1.7 0.00 0.00 0.00 80 1020.1
20260906135830 65 352 0.9 2.6 0.00 0.00 0.00 80 1020.1
20260906135326 65 358 1.7 2.6 0.00 0.00 0.00 81 1020.0
20260906134821 65 357 1.7 2.6 0.00 0.00 0.00 81 1019.8
20260906134316 65 355 0.9 2.6 0.00 0.00 0.00 81 1020.2
20260906133812 64 355 1.7 2.6 0.00 0.00 0.00 82 1020.0
20260906133307 63 353 1.7 2.6 0.00 0.00 0.00 82 1020.1
20260906132803 62 353 1.7 2.6 0.00 0.00 0.00 83 1020.0
20260906132306 62 351 1.7 2.6 0.00 0.00 0.00 83 1020.0
20260906131758 62 348 0.9 0.9 0.00 0.00 0.00 83 1020.1
20260906131253 62 352 0.0 0.0 0.00 0.00 0.00 83 1020.0
20260906130749 62 349 0.0 0.0 0.00 0.00 0.00 84 1020.1
20260906130244 62 352 0.0 0.0 0.00 0.00 0.00 84 1019.8
20260906125743 61 352 0.0 0.9 0.00 0.00 0.00 85 1020.0
20260906125241 61 350 0.0 0.0 0.00 0.00 0.00 84 1019.9
20260906124741 60 350 0.0 0.0 0.00 0.00 0.00 85 1020.0
20260906124237 60 347 0.0 0.0 0.00 0.00 0.00 85 1019.9
20260906123735 60 348 0.0 0.0 0.00 0.00 0.00 86 1019.9
20260906123231 60 348 0.0 0.0 0.00 0.00 0.00 87 1019.7
20260906122730 59 347 0.0 0.0 0.00 0.00 0.00 87 1019.6
20260906122226 59 348 0.0 0.0 0.00 0.00 0.00 87 1019.8
20260906121722 59 348 0.0 0.0 0.00 0.00 0.00 88 1019.7
20260906121218 59 348 0.0 0.0 0.00 0.00 0.00 88 1019.8
20260906120714 59 349 0.0 0.0 0.00 0.00 0.00 88 1019.7
20260906120211 59 346 0.0 0.0 0.00 0.00 0.00 89 1019.6
20260906115706 59 349 0.0 0.0 0.00 0.00 0.00 88 1019.4
20260906115201 59 348 0.0 0.0 0.00 0.00 0.00 88 1019.5
20260906114700 58 348 0.0 0.0 0.00 0.00 0.00 89 1019.6
20260906114155 58 350 0.0 0.0 0.00 0.00 0.00 89 1019.7
20260906113655 58 347 0.0 0.0 0.00 0.00 0.00 90 1019.4
20260906113155 58 347 0.0 0.0 0.00 0.00 0.00 90 1019.5
20260906112654 58 346 0.0 0.0 0.00 0.00 0.00 90 1019.4
20260906112152 58 345 0.0 0.0 0.00 0.00 0.00 90 1019.1
20260906111651 59 347 0.0 0.0 0.00 0.00 0.00 91 1019.3
20260906111145 59 348 0.0 0.0 0.00 0.00 0.00 92 1019.1
20260906110641 59 347 0.0 0.0 0.00 0.00 0.00 91 1019.2
20260906110137 58 346 0.0 0.0 0.00 0.00 0.00 92 1019.1
20260906105636 59 347 0.0 0.0 0.00 0.00 0.00 91 1019.3
20260906105132 59 347 0.0 0.0 0.00 0.00 0.00 91 1019.1
20260906104631 58 347 0.0 0.0 0.00 0.00 0.00 92 1019.1
20260906104131 59 354 0.0 0.0 0.00 0.00 0.00 91 1019.1
20260906103629 59 42 0.0 0.0 0.00 0.00 0.00 91 1019.0
20260906103125 59 36 0.9 0.9 0.00 0.00 0.00 91 1019.2
20260906102620 59 47 0.0 0.9 0.00 0.00 0.00 91 1018.9
20260906102115 59 49 0.0 0.9 0.00 0.00 0.00 90 1019.2
20260906101615 59 43 0.0 0.0 0.00 0.00 0.00 90 1019.0
20260906101114 59 49 0.0 0.9 0.00 0.00 0.00 90 1019.0
20260906100610 59 40 0.9 0.9 0.00 0.00 0.00 90 1018.9
20260906100110 59 47 0.0 0.9 0.00 0.00 0.00 90 1019.0
20260906095610 59 49 0.0 0.9 0.00 0.00 0.00 89 1018.9
20260906095106 59 49 0.0 0.9 0.00 0.00 0.00 89 1019.2
20260906094604 59 49 0.0 0.0 0.00 0.00 0.00 89 1018.9
20260906094101 60 48 0.9 0.9 0.00 0.00 0.00 89 1018.9
20260906093556 60 46 0.9 1.7 0.00 0.00 0.00 89 1019.1
20260906093051 60 44 0.0 0.9 0.00 0.00 0.00 90 1018.9
20260906092546 60 49 0.0 0.9 0.00 0.00 0.00 89 1018.9
20260906092041 60 48 0.0 0.0 0.00 0.00 0.00 89 1018.8
20260906091537 60 41 0.0 0.0 0.00 0.00 0.00 89 1019.0
20260906091034 60 50 0.0 0.0 0.00 0.00 0.00 90 1018.8
20260906090534 60 51 0.0 0.0 0.00 0.00 0.00 89 1018.8
20260906090034 60 44 0.9 0.9 0.00 0.00 0.00 88 1018.8
20260906085532 61 49 0.0 0.9 0.00 0.00 0.00 88 1018.8
20260906085032 61 46 0.0 1.7 0.00 0.00 0.00 86 1019.0
20260906084527 62 50 0.0 0.9 0.00 0.00 0.00 85 1019.0
20260906084026 63 49 0.0 0.9 0.00 0.00 0.00 82 1018.7
20260906083522 63 55 1.7 2.6 0.00 0.00 0.00 81 1018.8
20260906083021 62 56 0.9 1.7 0.00 0.00 0.00 82 1018.7
20260906082516 63 51 0.9 1.7 0.00 0.00 0.00 82 1018.8
20260906082012 63 52 0.9 1.7 0.00 0.00 0.00 82 1018.9
20260906081508 63 42 1.7 2.6 0.00 0.00 0.00 81 1018.6
20260906081003 63 39 1.7 2.6 0.00 0.00 0.00 81 1018.6
20260906080500 63 46 1.7 2.6 0.00 0.00 0.00 81 1018.5
20260906075955 63 44 2.6 3.5 0.00 0.00 0.00 82 1018.7
20260906075450 63 33 1.7 3.5 0.00 0.00 0.00 83 1018.6
20260906074945 63 60 1.7 3.5 0.00 0.00 0.00 84 1018.5
20260906074444 63 46 2.6 3.5 0.00 0.00 0.00 84 1018.4
20260906073943 62 47 0.9 2.6 0.00 0.00 0.00 84 1018.3
20260906073438 62 41 1.7 2.6 0.00 0.00 0.00 85 1018.3
20260906072934 62 37 0.9 1.7 0.00 0.00 0.00 85 1018.3
20260906072429 62 40 0.9 1.7 0.00 0.00 0.00 84 1018.5
20260906071925 63 41 0.9 1.7 0.00 0.00 0.00 83 1018.4
20260906071421 64 44 0.0 1.7 0.00 0.00 0.00 80 1018.5
20260906070917 64 47 0.9 2.6 0.00 0.00 0.00 79 1018.4
20260906070413 64 48 0.9 2.6 0.00 0.00 0.00 78 1018.4
20260906065908 64 32 1.7 3.5 0.00 0.00 0.00 77 1018.4
20260906065402 64 42 2.6 6.1 0.00 0.00 0.00 77 1018.3
20260906064858 63 32 2.6 5.2 0.00 0.00 0.00 78 1018.2
20260906064355 63 49 0.9 2.6 0.00 0.00 0.00 79 1018.3
20260906063854 64 46 1.7 3.5 0.00 0.00 0.00 78 1018.1
20260906063349 64 53 3.5 5.2 0.00 0.00 0.00 78 1018.0
20260906062844 64 51 1.7 3.5 0.00 0.00 0.00 79 1018.0
20260906062344 64 38 3.5 6.1 0.00 0.00 0.00 79 1018.1
20260906061839 64 48 1.7 3.5 0.00 0.00 0.00 79 1018.0
20260906061336 64 33 3.5 5.2 0.00 0.00 0.00 79 1018.2
20260906060830 64 52 2.6 3.5 0.00 0.00 0.00 80 1018.2
20260906060328 64 34 2.6 5.2 0.00 0.00 0.00 79 1018.1
20260906055824 64 49 1.7 5.2 0.00 0.00 0.00 79 1017.9
20260906055319 64 45 2.6 3.5 0.00 0.00 0.00 79 1018.1
20260906054814 64 52 3.5 5.2 0.00 0.00 0.00 79 1018.0
20260906054309 64 46 3.5 5.2 0.00 0.00 0.00 79 1017.8
20260906053806 65 47 2.6 2.6 0.00 0.00 0.00 79 1017.9
20260906053301 65 55 3.5 5.2 0.00 0.00 0.00 81 1017.9
20260906052756 65 47 2.6 5.2 0.00 0.00 0.00 83 1017.8
20260906052252 65 41 3.5 7.0 0.00 0.00 0.00 82 1017.7
20260906051749 65 52 1.7 3.5 0.00 0.00 0.00 81 1017.8
20260906051249 64 46 1.7 2.6 0.00 0.00 0.00 83 1017.9
20260906050744 64 51 2.6 2.6 0.00 0.00 0.00 84 1018.0
20260906050239 64 52 0.9 1.7 0.00 0.00 0.00 83 1017.8
20260906045738 64 53 0.9 0.9 0.00 0.00 0.00 83 1017.7
20260906045233 64 51 0.9 1.7 0.00 0.00 0.00 82 1017.9
20260906044729 64 53 0.9 1.7 0.00 0.00 0.00 83 1018.0
20260906044224 64 54 0.9 0.9 0.00 0.00 0.00 83 1017.9
20260906043720 65 53 0.0 1.7 0.00 0.00 0.00 83 1017.8
20260906043216 65 52 1.7 1.7 0.00 0.00 0.00 82 1017.6
20260906042715 65 53 0.0 1.7 0.00 0.00 0.00 82 1017.4
20260906042214 65 54 0.0 0.9 0.00 0.00 0.00 82 1017.4
20260906041710 66 52 0.0 2.6 0.00 0.00 0.00 82 1017.6
20260906041205 65 53 0.0 2.6 0.00 0.00 0.00 81 1017.4
20260906040701 65 54 0.0 0.9 0.00 0.00 0.00 81 1017.3
20260906040156 65 54 0.9 0.9 0.00 0.00 0.00 80 1017.4
20260906035651 65 49 1.7 1.7 0.00 0.00 0.00 80 1017.4
20260906035147 65 54 0.0 1.7 0.00 0.00 0.00 80 1017.4
20260906034647 65 54 0.0 1.7 0.00 0.00 0.00 79 1017.3
20260906034142 65 47 0.0 1.7 0.00 0.00 0.00 79 1017.3
20260906033637 65 45 0.0 1.7 0.00 0.00 0.00 79 1017.3
20260906033132 66 51 0.9 1.7 0.00 0.00 0.00 78 1017.2
20260906032629 66 54 0.0 1.7 0.00 0.00 0.00 78 1017.4
20260906032128 66 53 0.9 1.7 0.00 0.00 0.00 78 1017.5
20260906031624 66 50 0.0 0.9 0.00 0.00 0.00 78 1017.4
20260906031120 66 53 0.9 1.7 0.00 0.00 0.00 78 1017.4
20260906030618 66 55 0.9 1.7 0.00 0.00 0.00 77 1017.3
20260906030114 67 54 0.0 0.9 0.00 0.00 0.00 77 1017.5
20260906025613 67 52 0.0 0.9 0.00 0.00 0.00 76 1017.2
20260906025112 67 54 0.0 1.7 0.00 0.00 0.00 76 1017.2
20260906024607 67 50 1.7 2.6 0.00 0.00 0.00 76 1017.3
20260906024107 68 51 0.9 1.7 0.00 0.00 0.00 76 1017.3
20260906023603 68 51 0.9 1.7 0.00 0.00 0.00 77 1017.3
20260906023057 68 56 0.0 1.7 0.00 0.00 0.00 78 1017.2
20260906022553 68 54 0.0 0.9 0.00 0.00 0.00 79 1017.3
20260906022048 68 53 1.7 2.6 0.00 0.00 0.00 81 1017.3
20260906021544 68 50 0.9 1.7 0.00 0.00 0.00 84 1017.2
20260906021043 68 55 0.0 1.7 0.00 0.00 0.00 85 1017.1
20260906020542 68 48 0.9 1.7 0.00 0.00 0.00 86 1017.2
20260906020037 68 51 0.9 1.7 0.00 0.00 0.00 85 1017.0
20260906015536 68 49 0.9 1.7 0.00 0.00 0.00 83 1017.1
20260906015035 69 47 0.9 1.7 0.00 0.00 0.00 81 1017.0
20260906014530 69 43 0.9 1.7 0.00 0.00 0.00 79 1017.1
20260906014026 70 54 0.0 1.7 0.00 0.00 0.00 77 1017.3
20260906013521 70 52 0.0 0.0 0.00 0.00 0.00 78 1017.1
20260906013017 70 51 0.0 0.9 0.00 0.00 0.00 78 1016.9
20260906012512 70 34 0.9 1.7 0.00 0.00 0.00 78 1016.9
20260906012012 70 46 0.0 0.0 0.00 0.00 0.00 78 1016.8
20260906011508 70 55 0.0 0.0 0.00 0.00 0.00 75 1016.8
20260906011008 70 46 0.0 0.0 0.00 0.00 0.00 73 1016.9
20260906010503 70 48 0.0 0.0 0.00 0.00 0.00 71 1016.8
20260906005959 71 55 0.0 0.0 0.00 0.00 0.00 69 1016.9
20260906005458 71 44 0.0 0.0 0.00 0.00 0.00 68 1016.7
20260906004957 71 43 0.0 0.0 0.00 0.00 0.00 68 1016.6
20260906004457 71 55 0.0 0.0 0.00 0.00 0.00 68 1016.9
20260906003952 71 54 0.0 0.0 0.00 0.00 0.00 67 1016.7
20260906003447 70 59 0.0 0.0 0.00 0.00 0.00 70 1016.6
20260906002942 71 60 0.0 0.0 0.00 0.00 0.00 70 1016.6
20260906002442 71 61 0.0 0.0 0.00 0.00 0.00 69 1016.7
20260906001937 71 60 0.0 0.0 0.00 0.00 0.00 69 1016.5
20260906001434 71 36 0.9 1.7 0.00 0.00 0.00 69 1016.5
20260906000928 72 15 0.9 2.6 0.00 0.00 0.00 69 1016.7
20260906000425 73 53 0.0 0.0 0.00 0.00 0.00 69 1016.6
20260905235919 73 74 0.0 0.0 0.00 0.00 0.00 65 1016.5
20260905235418 73 64 0.0 0.0 0.00 0.00 0.00 67 1016.5
20260905234913 74 75 0.9 0.9 0.00 0.00 0.00 66 1016.4
20260905234409 74 59 0.0 0.9 0.00 0.00 0.00 65 1016.6
20260905233903 75 70 0.0 0.9 0.00 0.00 0.00 63 1016.6
20260905233358 75 96 0.9 0.9 0.00 0.00 0.00 62 1016.6
20260905232858 75 56 1.7 2.6 0.00 0.00 0.00 60 1016.6
20260905232354 75 82 1.7 2.6 0.00 0.00 0.00 59 1016.7
20260905231849 75 57 0.0 0.9 0.00 0.00 0.00 62 1016.5
20260905231344 75 123 0.9 2.6 0.00 0.00 0.00 61 1016.4
20260905230841 76 83 1.7 2.6 0.00 0.00 0.00 60 1016.6
20260905230338 76 75 0.9 2.6 0.00 0.00 0.00 61 1016.5
20260905225838 75 70 1.7 2.6 0.00 0.00 0.00 60 1016.6
20260905225333 76 141 1.7 2.6 0.00 0.00 0.00 59 1016.7
20260905224828 77 188 2.6 2.6 0.00 0.00 0.00 57 1016.6
20260905224324 76 55 0.9 1.7 0.00 0.00 0.00 59 1016.5
20260905223824 76 85 1.7 1.7 0.00 0.00 0.00 59 1016.6
20260905223322 76 197 1.7 3.5 0.00 0.00 0.00 57 1016.5
20260905222816 77 189 1.7 3.5 0.00 0.00 0.00 58 1016.4
20260905222315 77 111 0.0 1.7 0.00 0.00 0.00 56 1016.5
20260905221811 77 120 1.7 2.6 0.00 0.00 0.00 58 1016.7
20260905221308 78 74 1.7 3.5 0.00 0.00 0.00 58 1016.7
20260905220803 76 75 0.9 5.2 0.00 0.00 0.00 59 1016.7
20260905220300 77 78 1.7 3.5 0.00 0.00 0.00 59 1016.5
20260905215758 77 67 1.7 3.5 0.00 0.00 0.00 59 1016.5
20260905215255 77 86 0.9 2.6 0.00 0.00 0.00 59 1016.4
20260905214750 77 84 1.7 1.7 0.00 0.00 0.00 61 1016.4
20260905214246 76 133 1.7 6.1 0.00 0.00 0.00 62 1016.5
20260905213741 77 188 3.5 7.0 0.00 0.00 0.00 62 1016.4
20260905213237 76 78 0.9 5.2 0.00 0.00 0.00 63 1016.3
20260905212732 76 58 3.5 5.2 0.00 0.00 0.00 63 1016.2
20260905212231 76 100 4.3 6.1 0.00 0.00 0.00 60 1016.2
20260905211731 77 181 3.5 6.1 0.00 0.00 0.00 60 1016.2
20260905211226 77 61 0.9 5.2 0.00 0.00 0.00 60 1016.2
20260905210723 77 200 3.5 5.2 0.00 0.00 0.00 58 1016.0
20260905210223 77 151 2.6 6.1 0.00 0.00 0.00 60 1016.1
20260905205721 77 178 3.5 5.2 0.00 0.00 0.00 58 1016.0
20260905205216 78 173 2.6 5.2 0.00 0.00 0.00 56 1016.2
20260905204710 79 50 1.7 3.5 0.00 0.00 0.00 57 1016.2
20260905204206 78 186 1.7 5.2 0.00 0.00 0.00 56 1016.4
20260905203706 79 148 1.7 5.2 0.00 0.00 0.00 57 1016.2
20260905203201 78 271 1.7 5.2 0.00 0.00 0.00 57 1016.2
20260905202657 77 48 0.9 3.5 0.00 0.00 0.00 58 1016.2
20260905202152 78 196 4.3 7.8 0.00 0.00 0.00 56 1016.2
20260905201647 77 144 4.3 6.1 0.00 0.00 0.00 59 1016.3
20260905201147 78 186 3.5 3.5 0.00 0.00 0.00 57 1016.4
20260905200642 77 139 2.6 6.1 0.00 0.00 0.00 59 1016.4
20260905200138 77 121 2.6 6.1 0.00 0.00 0.00 57 1016.4
20260905195636 78 190 3.5 5.2 0.00 0.00 0.00 56 1016.5
20260905195131 78 218 2.6 3.5 0.00 0.00 0.00 57 1016.2
20260905194626 77 144 2.6 6.1 0.00 0.00 0.00 59 1016.5
20260905194125 78 152 0.9 7.0 0.00 0.00 0.00 58 1016.4
20260905193621 78 147 1.7 5.2 0.00 0.00 0.00 58 1016.6
20260905193115 80 158 0.9 5.2 0.00 0.00 0.00 57 1016.4
20260905192611 79 185 1.7 3.5 0.00 0.00 0.00 56 1016.7
20260905192107 78 82 0.9 3.5 0.00 0.00 0.00 57 1016.7